Weather reports worldwide

Advertisment
Braemar, United Kingdom (99089): temperature & dewpoint: 09.01.2021 18:00:00 - 15.01.2021 18:00:00 (GMT)Braemar, United Kingdom (99089): temperature -20cm & temperature -100cm: 09.01.2021 18:00:00 - 15.01.2021 18:00:00 (GMT)Braemar, United Kingdom (99089): precipitation: 09.01.2021 18:00:00 - 15.01.2021 18:00:00 (GMT)
Date & Time tt [°C] td [°C] tt -20cm [°C] tt -100cm [°C] rr [mm]
15.01.2021 18:00:00 0,2 -0,7 - - 0,0
15.01.2021 17:00:00 0,5 -1,5 - - 0,0
15.01.2021 16:00:00 0,6 -0,8 - - 0,0
15.01.2021 15:00:00 -2,2 -3,2 - - 0,0
15.01.2021 14:00:00 -2,7 -3,8 - - 0,0
15.01.2021 13:00:00 -3,9 -5,0 - - 0,0
15.01.2021 12:00:00 -5,3 -6,7 - - 0,0
15.01.2021 11:00:00 -5,5 -6,1 - - 0,0
15.01.2021 10:00:00 -6,1 -6,8 - - 0,0
15.01.2021 09:00:00 -5,6 -6,4 1,0 3,2 0,0
15.01.2021 08:00:00 -4,3 -4,9 - - 0,0
15.01.2021 07:00:00 -2,8 -3,0 - - 0,0
15.01.2021 06:00:00 -2,6 -2,8 - - 0,0
15.01.2021 05:00:00 -2,0 -2,3 - - 0,0
15.01.2021 04:00:00 -0,3 -0,7 - - 0,0
15.01.2021 03:00:00 0,6 0,0 - - 0,0
15.01.2021 02:00:00 0,9 0,0 - - 0,4
15.01.2021 01:00:00 1,2 0,3 - - 0,6
15.01.2021 00:00:00 1,5 0,3 - - 0,4
14.01.2021 23:00:00 1,6 0,1 - - 0,8
14.01.2021 22:00:00 1,5 0,2 - - 0,8
14.01.2021 21:00:00 1,5 0,1 - - 0,6
14.01.2021 20:00:00 1,6 0,3 - - 0,8
14.01.2021 19:00:00 1,8 0,5 - - 0,6
14.01.2021 18:00:00 0,8 0,4 - - 0,4
14.01.2021 17:00:00 0,4 0,0 - - 0,6
14.01.2021 16:00:00 0,9 0,4 - - 0,4
14.01.2021 15:00:00 0,4 0,0 - - 0,6
14.01.2021 14:00:00 0,8 0,3 - - 0,4
14.01.2021 13:00:00 0,7 0,4 - - 0,0
14.01.2021 12:00:00 0,5 0,3 - - 0,0
14.01.2021 11:00:00 0,3 0,2 - - 0,0
14.01.2021 10:00:00 0,3 0,2 - - 0,0
14.01.2021 09:00:00 0,1 0,0 1,0 3,2 0,0
14.01.2021 08:00:00 -0,3 -0,4 - - 0,0
14.01.2021 07:00:00 -0,4 -0,5 - - 0,0
14.01.2021 06:00:00 -0,4 -0,6 - - 0,0
14.01.2021 05:00:00 -0,2 -0,3 - - 0,0
14.01.2021 04:00:00 -0,2 -0,4 - - 0,0
14.01.2021 03:00:00 -0,3 -0,4 - - 0,0
14.01.2021 02:00:00 -0,4 -0,6 - - 0,0
14.01.2021 01:00:00 -0,5 -0,7 - - 0,0
14.01.2021 00:00:00 -0,6 -0,8 - - 0,0
13.01.2021 23:00:00 -0,6 -0,8 - - 0,0
13.01.2021 22:00:00 -0,6 -0,8 - - 0,0
13.01.2021 21:00:00 -0,7 -1,1 - - 0,0
13.01.2021 20:00:00 -0,6 -1,0 - - 0,0
13.01.2021 19:00:00 -0,6 -1,1 - - 0,0
13.01.2021 18:00:00 -0,3 -1,6 - - 0,0
13.01.2021 17:00:00 -0,2 -2,0 - - 0,0
13.01.2021 16:00:00 -0,3 -2,0 - - 0,0
13.01.2021 15:00:00 -0,3 -2,2 - - 0,0
13.01.2021 14:00:00 -0,6 -2,7 - - 0,0
13.01.2021 13:00:00 -0,8 -2,5 - - 0,0
13.01.2021 12:00:00 -1,8 -3,2 - - 0,0
13.01.2021 11:00:00 -2,2 -3,4 - - 0,0
13.01.2021 10:00:00 -3,2 -3,9 - - 0,0
13.01.2021 09:00:00 -4,0 -4,8 1,0 3,4 0,0
13.01.2021 08:00:00 -3,1 -3,8 - - 0,0
13.01.2021 07:00:00 -2,7 -3,6 - - 0,0
13.01.2021 06:00:00 -2,5 -3,6 - - 0,0
13.01.2021 05:00:00 -2,1 -3,8 - - 0,0
13.01.2021 04:00:00 -1,7 -3,4 - - 0,0
13.01.2021 03:00:00 -1,6 -3,5 - - 0,0
13.01.2021 02:00:00 -1,1 -3,5 - - 0,0
13.01.2021 01:00:00 -1,2 -3,6 - - 0,0
13.01.2021 00:00:00 -0,9 -3,5 - - 0,0
12.01.2021 23:00:00 -0,6 -3,6 - - 0,0
12.01.2021 22:00:00 -0,6 -4,0 - - 0,0
12.01.2021 21:00:00 1,3 -3,4 - - 0,0
12.01.2021 20:00:00 1,9 -3,5 - - 0,0
12.01.2021 19:00:00 1,5 -3,5 - - 0,0
12.01.2021 18:00:00 1,5 -3,8 - - 0,0
12.01.2021 17:00:00 1,7 -4,1 - - 0,0
12.01.2021 16:00:00 1,6 -4,3 - - 0,0
12.01.2021 15:00:00 2,0 -3,6 - - 0,0
12.01.2021 14:00:00 2,0 -2,8 - - 0,0
12.01.2021 13:00:00 2,7 -3,0 - - 0,0
12.01.2021 12:00:00 2,4 -2,1 - - 0,0
12.01.2021 11:00:00 1,9 -2,5 - - 0,0
12.01.2021 10:00:00 0,8 -2,2 - - 0,0
12.01.2021 09:00:00 0,7 -2,2 1,0 3,4 0,0
12.01.2021 08:00:00 0,8 -1,8 - - 0,0
12.01.2021 07:00:00 1,0 -1,9 - - 0,0
12.01.2021 06:00:00 1,3 -2,5 - - 0,0
12.01.2021 05:00:00 1,3 -2,5 - - 0,0
12.01.2021 04:00:00 1,4 -3,6 - - 0,0
12.01.2021 03:00:00 1,1 -2,6 - - 0,0
12.01.2021 02:00:00 0,8 -3,0 - - 0,0
12.01.2021 01:00:00 0,6 -3,2 - - 0,0
12.01.2021 00:00:00 -0,4 -3,4 - - 0,0
11.01.2021 23:00:00 -1,0 -4,0 - - 0,0
11.01.2021 22:00:00 -0,2 -3,9 - - 0,0
11.01.2021 21:00:00 -0,3 -4,4 - - 0,0
11.01.2021 20:00:00 0,1 -3,8 - - 0,0
11.01.2021 19:00:00 0,4 -2,2 - - 0,0
11.01.2021 18:00:00 0,8 -1,7 - - 0,0
11.01.2021 17:00:00 1,0 -0,1 - - 0,2
11.01.2021 16:00:00 1,4 0,8 - - 0,6
11.01.2021 15:00:00 1,5 0,8 - - -
11.01.2021 14:00:00 3,1 0,5 - - 0,2
11.01.2021 13:00:00 5,3 1,8 - - 1,6
11.01.2021 12:00:00 7,1 6,1 - - 1,2
11.01.2021 11:00:00 5,3 4,9 - - 0,8
11.01.2021 10:00:00 4,9 4,1 - - 0,4
11.01.2021 09:00:00 5,5 3,6 1,0 3,5 0,2
11.01.2021 08:00:00 5,9 3,8 - - 0,0
11.01.2021 07:00:00 5,7 4,3 - - 0,0
11.01.2021 06:00:00 5,9 4,0 - - 0,0
11.01.2021 05:00:00 5,7 3,7 - - 0,0
11.01.2021 04:00:00 4,9 2,8 - - 0,0
11.01.2021 03:00:00 4,6 2,4 - - 0,0
11.01.2021 02:00:00 4,6 2,4 - - 0,0
11.01.2021 01:00:00 4,7 2,4 - - 0,2
11.01.2021 00:00:00 4,3 2,6 - - 0,0
10.01.2021 23:00:00 4,3 2,7 - - 0,2
10.01.2021 22:00:00 4,5 2,4 - - 0,0
10.01.2021 21:00:00 4,4 2,5 - - 0,0
10.01.2021 20:00:00 3,5 2,5 - - 0,0
10.01.2021 19:00:00 3,7 2,3 - - 0,0
10.01.2021 18:00:00 3,7 2,0 - - 0,2
10.01.2021 17:00:00 3,8 2,1 - - 0,0
10.01.2021 16:00:00 4,3 2,1 - - 0,0
10.01.2021 15:00:00 4,2 1,9 - - 0,0
10.01.2021 14:00:00 4,4 1,8 - - 0,0
10.01.2021 13:00:00 3,7 1,8 - - 0,0
10.01.2021 12:00:00 3,0 1,0 - - 0,0
10.01.2021 11:00:00 2,8 0,4 - - 0,0
10.01.2021 10:00:00 2,2 0,0 - - 0,0
10.01.2021 09:00:00 1,3 -0,5 1,0 3,7 0,0
10.01.2021 08:00:00 1,4 -0,8 - - 0,0
10.01.2021 07:00:00 1,1 -1,5 - - 0,0
10.01.2021 06:00:00 0,9 -1,6 - - 0,0
10.01.2021 05:00:00 1,1 -1,5 - - 0,0
10.01.2021 04:00:00 1,1 -1,2 - - 0,0
10.01.2021 03:00:00 1,9 -2,1 - - 0,0
10.01.2021 02:00:00 0,2 0,0 - - 0,2
10.01.2021 01:00:00 0,4 0,2 - - 0,0
10.01.2021 00:00:00 0,3 -0,1 - - 0,0
09.01.2021 23:00:00 0,8 0,1 - - 0,2
09.01.2021 22:00:00 1,1 0,5 - - 0,0
09.01.2021 21:00:00 2,1 0,7 - - 0,0
09.01.2021 20:00:00 3,7 1,2 - - 0,8
09.01.2021 19:00:00 3,5 2,4 - - 0,4
09.01.2021 18:00:00 3,1 2,1 - - 0,4

tt = temperature
td = dewpoint
tt -20cm = temperature -20cm
tt -100cm = temperature -100cm
rr = precipitation

Next stations